Track COSMOS 2507 now! 10-day predictions COSMOS 2507 is classified as:
1 40920U 15050A 25022.49039941 .00000034 00000-0 17136-3 0 9994 2 40920 82.4907 37.5941 0009934 30.1195 330.0454 12.42903951423419